M I D A S
Marine Information and Data Acquisition System
Tripno 431 of the Zeeleeuw from 2003-02-14 07:41:10 to 2003-02-14 14:48:10
Back to CruiseResearch ActivitiesStationsMapUnderway DataData graphs

EquipmentUnitsComments
TimeDGPSUTC
LatitudeDGPSDM.mWGS84
LongitudeDGPSDM.mWGS84
SpeedMeteo Stationm/sRelative wind speed
DirectionMeteo StationdegRelative wind direction
TemperatureMeteo Stationdeg CelciusAir temperature
PressureMeteo StationPaAtmospheric pressure
HumidityMeteo Station%Relative humidity
Missing or incorrect values are displayed as -999
Metereological data collected by the RV Zeeleeuw from 2003-02-14 07:41:10 to 2003-02-14 14:48:10
                                                                                    Next 1000 lines
Time Latitude Longitude Speed Direction Temperature Pressure Humidity
2003-02-14 07:41:19 51°13.657 2°55.873 0.7 297 -2.8 102800 75
2003-02-14 07:41:24 51°13.659 2°55.864 0.6 303 -2.8 102800 75
2003-02-14 07:41:29 51°13.661 2°55.856 0.6 324 -2.8 102810 75
2003-02-14 07:41:34 51°13.663 2°55.848 0.6 231 -2.8 102810 75
2003-02-14 07:41:39 51°13.665 2°55.84 0.4 241 -2.8 102800 75
2003-02-14 07:41:44 51°13.667 2°55.832 1.5 271 -2.8 102800 75
2003-02-14 07:41:48 51°13.668 2°55.826 1.9 289 -2.8 102810 75
2003-02-14 07:41:54 51°13.67 2°55.817 1.9 295 -2.8 102810 75
2003-02-14 07:41:58 51°13.672 2°55.811 1.7 253 -2.8 102810 75
2003-02-14 07:42:03 51°13.673 2°55.804 2.3 251 -2.8 102810 75
2003-02-14 07:42:08 51°13.674 2°55.796 1.7 232 -2.8 102810 75
2003-02-14 07:42:14 51°13.676 2°55.788 1.5 232 -2.8 102810 75
2003-02-14 07:42:19 51°13.677 2°55.781 1.3 249 -2.7 102810 75
2003-02-14 07:42:24 51°13.677 2°55.773 1.2 249 -2.7 102810 75
2003-02-14 07:42:28 51°13.678 2°55.768 1.2 258 -2.7 102810 75
2003-02-14 07:42:34 51°13.679 2°55.761 1.6 249 -2.7 102810 75
2003-02-14 07:42:38 51°13.679 2°55.757 2 229 -2.7 102810 75
2003-02-14 07:42:43 51°13.68 2°55.752 2.3 216 -2.7 102810 75
2003-02-14 07:42:48 51°13.68 2°55.749 2.7 200 -2.7 102810 75
2003-02-14 07:42:54 51°13.68 2°55.746 2.8 199 -2.7 102810 75
2003-02-14 07:42:59 51°13.68 2°55.745 2.5 203 -2.7 102810 75
2003-02-14 07:43:04 51°13.681 2°55.744 3.2 233 -2.7 102810 75
2003-02-14 07:43:08 51°13.681 2°55.744 2.8 212 -2.7 102810 75
2003-02-14 07:43:14 51°13.682 2°55.745 3.8 197 -2.7 102810 75
2003-02-14 07:43:19 51°13.683 2°55.746 3.1 184 -2.7 102810 75
2003-02-14 07:43:24 51°13.684 2°55.747 2.8 190 -2.7 102810 75
2003-02-14 07:43:28 51°13.685 2°55.748 3.1 193 -2.7 102810 75
2003-02-14 07:43:34 51°13.686 2°55.75 4.2 205 -2.7 102810 75
2003-02-14 07:43:39 51°13.688 2°55.752 3.8 178 -2.7 102810 75
2003-02-14 07:43:44 51°13.69 2°55.754 3.7 164 -2.7 102810 75
2003-02-14 07:43:49 51°13.691 2°55.755 3.1 158 -2.7 102810 75
2003-02-14 07:43:54 51°13.693 2°55.757 4.8 162 -2.7 102810 75
2003-02-14 07:43:58 51°13.695 2°55.758 3.9 170 -2.7 102810 75
2003-02-14 07:44:03 51°13.696 2°55.758 4.6 164 -2.7 102810 75
2003-02-14 07:44:08 51°13.698 2°55.759 4.2 163 -2.7 102810 75
2003-02-14 07:44:13 51°13.699 2°55.76 4.3 139 -2.7 102810 75
2003-02-14 07:44:18 51°13.699 2°55.76 3.6 139 -2.7 102800 75
2003-02-14 07:44:23 51°13.7 2°55.76 4 134 -2.7 102800 75
2003-02-14 07:44:28 51°13.699 2°55.759 4.2 143 -2.7 102810 75
2003-02-14 07:44:33 51°13.698 2°55.758 4.6 128 -2.7 102810 75
2003-02-14 07:44:38 51°13.697 2°55.757 4.6 145 -2.7 102810 75
2003-02-14 07:44:43 51°13.696 2°55.756 3.9 144 -2.7 102810 75
2003-02-14 07:44:49 51°13.695 2°55.755 4.6 149 -2.8 102810 75
2003-02-14 07:44:54 51°13.694 2°55.755 3.7 150 -2.8 102810 75
2003-02-14 07:44:59 51°13.694 2°55.754 3.3 157 -2.8 102810 75
2003-02-14 07:45:04 51°13.695 2°55.754 4.2 143 -2.8 102810 75
2003-02-14 07:45:09 51°13.696 2°55.753 3.6 138 -2.8 102810 75
2003-02-14 07:45:14 51°13.698 2°55.753 3.4 125 -2.8 102810 75
2003-02-14 07:45:19 51°13.7 2°55.752 3.5 139 -2.7 102810 75
2003-02-14 07:45:24 51°13.702 2°55.751 4 124 -2.7 102810 75
2003-02-14 07:45:29 51°13.705 2°55.749 2.9 116 -2.8 102810 75
2003-02-14 07:45:34 51°13.709 2°55.746 2.9 134 -2.8 102810 75
2003-02-14 07:45:39 51°13.713 2°55.743 2.8 130 -2.8 102810 75
2003-02-14 07:45:43 51°13.716 2°55.74 2.7 132 -2.8 102810 75
2003-02-14 07:45:48 51°13.721 2°55.735 2.2 133 -2.8 102810 75
2003-02-14 07:45:53 51°13.725 2°55.73 2.4 131 -2.8 102810 75
2003-02-14 07:45:58 51°13.731 2°55.724 2.3 140 -2.8 102810 75
2003-02-14 07:46:03 51°13.736 2°55.719 3.5 166 -2.8 102810 75
2003-02-14 07:46:08 51°13.742 2°55.712 3.8 159 -2.8 102810 75
2003-02-14 07:46:13 51°13.748 2°55.706 2.6 186 -2.8 102810 75
2003-02-14 07:46:19 51°13.756 2°55.697 2 182 -2.8 102810 75
2003-02-14 07:46:23 51°13.762 2°55.691 3.8 172 -2.8 102810 75
2003-02-14 07:46:28 51°13.77 2°55.683 2.5 155 -2.8 102810 75
2003-02-14 07:46:34 51°13.779 2°55.674 4.2 170 -2.8 102810 75
2003-02-14 07:46:38 51°13.785 2°55.668 2.9 174 -2.8 102810 75
2003-02-14 07:46:43 51°13.794 2°55.66 3.4 157 -2.8 102810 75
2003-02-14 07:46:48 51°13.803 2°55.652 3.1 172 -2.8 102810 75
2003-02-14 07:46:53 51°13.812 2°55.644 3 191 -2.8 102810 75
2003-02-14 07:46:58 51°13.821 2°55.636 3.8 210 -2.8 102820 75
2003-02-14 07:47:04 51°13.832 2°55.627 3.4 188 -2.8 102820 75
2003-02-14 07:47:08 51°13.84 2°55.622 3.8 226 -2.8 102820 75
2003-02-14 07:47:14 51°13.852 2°55.613 3.8 213 -2.8 102820 75
2003-02-14 07:47:18 51°13.86 2°55.607 3.8 183 -2.8 102810 75
2003-02-14 07:47:23 51°13.87 2°55.6 3 164 -2.8 102810 75
2003-02-14 07:47:28 51°13.88 2°55.593 2.8 174 -2.8 102820 75
2003-02-14 07:47:33 51°13.89 2°55.585 3.4 182 -2.8 102820 75
2003-02-14 07:47:39 51°13.903 2°55.576 3.1 193 -2.8 102820 75
2003-02-14 07:47:43 51°13.911 2°55.57 2.9 164 -2.8 102820 75
2003-02-14 07:47:48 51°13.921 2°55.563 2.4 186 -2.9 102810 75
2003-02-14 07:47:54 51°13.934 2°55.554 3 207 -2.9 102810 75
2003-02-14 07:47:59 51°13.944 2°55.546 3.1 215 -2.8 102820 75
2003-02-14 07:48:03 51°13.952 2°55.54 3.3 179 -2.8 102820 75
2003-02-14 07:48:08 51°13.963 2°55.533 3.8 169 -2.8 102810 75
2003-02-14 07:48:13 51°13.973 2°55.525 3.9 166 -2.8 102810 75
2003-02-14 07:48:18 51°13.983 2°55.518 3.8 153 -2.8 102820 75
2003-02-14 07:48:24 51°13.996 2°55.509 3.7 171 -2.8 102820 75
2003-02-14 07:48:28 51°14.004 2°55.503 3.6 165 -2.8 102810 75
2003-02-14 07:48:33 51°14.015 2°55.496 3.6 168 -2.8 102810 75
2003-02-14 07:48:38 51°14.025 2°55.489 2.8 181 -2.8 102810 75
2003-02-14 07:48:43 51°14.036 2°55.482 4.1 168 -2.8 102810 75
2003-02-14 07:48:48 51°14.046 2°55.474 4.6 159 -2.8 102810 75
2003-02-14 07:48:53 51°14.057 2°55.467 3.6 138 -2.8 102810 75
2003-02-14 07:48:58 51°14.067 2°55.46 3 158 -2.8 102810 75
2003-02-14 07:49:03 51°14.078 2°55.452 3.9 189 -2.8 102810 75
2003-02-14 07:49:08 51°14.088 2°55.445 3 197 -2.8 102810 75
2003-02-14 07:49:13 51°14.098 2°55.438 3.2 196 -2.8 102810 75
2003-02-14 07:49:18 51°14.109 2°55.43 3.7 180 -2.8 102810 75
2003-02-14 07:49:23 51°14.119 2°55.422 4.3 191 -2.8 102810 75
2003-02-14 07:49:28 51°14.13 2°55.415 3 182 -2.8 102810 75
2003-02-14 07:49:33 51°14.14 2°55.407 3.7 178 -2.8 102810 75
2003-02-14 07:49:38 51°14.15 2°55.399 4.6 162 -2.8 102810 75
2003-02-14 07:49:43 51°14.16 2°55.39 4.2 151 -2.8 102810 75
2003-02-14 07:49:48 51°14.17 2°55.382 3.8 145 -2.8 102800 75
2003-02-14 07:49:53 51°14.18 2°55.372 4.2 160 -2.8 102800 75
2003-02-14 07:49:58 51°14.189 2°55.363 2.7 182 -2.8 102800 75
2003-02-14 07:50:03 51°14.198 2°55.352 2.6 149 -2.8 102800 75
2003-02-14 07:50:08 51°14.206 2°55.342 3.8 131 -2.9 102800 74
2003-02-14 07:50:14 51°14.215 2°55.33 3.2 128 -2.9 102800 74
2003-02-14 07:50:18 51°14.221 2°55.322 2.5 141 -2.9 102800 74
2003-02-14 07:50:23 51°14.228 2°55.312 3 156 -2.9 102800 74
2003-02-14 07:50:28 51°14.235 2°55.302 1.9 145 -2.9 102800 74
2003-02-14 07:50:34 51°14.243 2°55.289 2.7 145 -2.9 102800 74
2003-02-14 07:50:38 51°14.248 2°55.281 2.3 156 -2.9 102800 74
2003-02-14 07:50:43 51°14.255 2°55.27 1.9 163 -2.9 102800 74
2003-02-14 07:50:48 51°14.261 2°55.259 2.2 140 -2.9 102810 74
2003-02-14 07:50:54 51°14.269 2°55.246 1.8 130 -2.9 102810 74
2003-02-14 07:50:58 51°14.274 2°55.237 1.6 121 -2.8 102800 74
2003-02-14 07:51:04 51°14.281 2°55.223 1.6 134 -2.8 102800 74
2003-02-14 07:51:08 51°14.286 2°55.214 1.6 143 -2.9 102790 75
2003-02-14 07:51:14 51°14.293 2°55.199 1.3 120 -2.9 102790 75
2003-02-14 07:51:17 51°14.296 2°55.192 1.5 110 -2.9 102830 75
2003-02-14 07:51:23 51°14.303 2°55.178 1.7 106 -2.9 102830 75
2003-02-14 07:51:28 51°14.309 2°55.165 0.9 137 -2.8 102820 75
2003-02-14 07:51:33 51°14.315 2°55.152 2 144 -2.8 102820 75
2003-02-14 07:51:39 51°14.322 2°55.137 2.4 128 -2.8 102820 75
2003-02-14 07:51:43 51°14.326 2°55.126 1.4 111 -2.8 102820 75
2003-02-14 07:51:48 51°14.332 2°55.112 1.7 110 -2.8 102820 75
2003-02-14 07:51:53 51°14.339 2°55.098 1 161 -2.8 102820 75
2003-02-14 07:51:59 51°14.346 2°55.08 1.6 188 -2.8 102820 75
2003-02-14 07:52:03 51°14.352 2°55.068 1.5 206 -2.8 102820 75
2003-02-14 07:52:08 51°14.358 2°55.052 2 193 -2.8 102810 75
2003-02-14 07:52:13 51°14.365 2°55.036 3.2 163 -2.8 102810 75
2003-02-14 07:52:19 51°14.374 2°55.015 2.3 154 -2.8 102820 75
2003-02-14 07:52:23 51°14.379 2°55.001 2.4 141 -2.8 102820 75
2003-02-14 07:52:28 51°14.387 2°54.983 2 196 -2.8 102810 75
2003-02-14 07:52:33 51°14.394 2°54.964 2.1 208 -2.8 102810 75
2003-02-14 07:52:39 51°14.402 2°54.94 2.7 190 -2.8 102810 75
2003-02-14 07:52:43 51°14.407 2°54.924 2.2 181 -2.8 102810 75
2003-02-14 07:52:48 51°14.412 2°54.903 1.7 199 -2.8 102810 75
2003-02-14 07:52:53 51°14.416 2°54.881 2.2 222 -2.8 102810 75
2003-02-14 07:52:59 51°14.419 2°54.854 2.1 236 -2.8 102820 75
2003-02-14 07:53:03 51°14.421 2°54.835 2.9 237 -2.8 102820 75
2003-02-14 07:53:08 51°14.422 2°54.812 2.6 218 -2.8 102820 75
2003-02-14 07:53:13 51°14.423 2°54.788 2.6 250 -2.8 102820 75
2003-02-14 07:53:18 51°14.424 2°54.765 2.7 229 -2.8 102820 75
2003-02-14 07:53:23 51°14.426 2°54.741 2.7 238 -2.8 102820 75
2003-02-14 07:53:28 51°14.426 2°54.716 2.9 242 -2.8 102820 75
2003-02-14 07:53:34 51°14.427 2°54.687 3 235 -2.8 102820 75
2003-02-14 07:53:38 51°14.427 2°54.668 2.4 247 -2.8 102820 75
2003-02-14 07:53:43 51°14.427 2°54.644 3.3 239 -2.8 102820 75
2003-02-14 07:53:47 51°14.425 2°54.625 3 255 -2.7 102830 75
2003-02-14 07:53:53 51°14.421 2°54.597 3.8 269 -2.7 102830 75
2003-02-14 07:53:59 51°14.415 2°54.57 3 269 -2.7 102820 75
2003-02-14 07:54:04 51°14.408 2°54.548 3.7 267 -2.7 102820 75
2003-02-14 07:54:08 51°14.403 2°54.531 3.5 273 -2.7 102820 75
2003-02-14 07:54:14 51°14.394 2°54.506 3.9 270 -2.7 102820 75
2003-02-14 07:54:18 51°14.388 2°54.489 3.9 286 -2.7 102820 75
2003-02-14 07:54:23 51°14.38 2°54.468 3.8 280 -2.7 102820 75
2003-02-14 07:54:28 51°14.373 2°54.446 3.2 279 -2.7 102820 75
2003-02-14 07:54:33 51°14.365 2°54.424 3.8 276 -2.7 102820 75
2003-02-14 07:54:38 51°14.358 2°54.402 3.8 279 -2.7 102820 76
2003-02-14 07:54:43 51°14.35 2°54.379 3.6 276 -2.7 102820 76
2003-02-14 07:54:48 51°14.342 2°54.356 4.9 270 -2.7 102820 76
2003-02-14 07:54:52 51°14.336 2°54.337 4.4 274 -2.7 102820 76
2003-02-14 07:54:58 51°14.326 2°54.309 4 275 -2.6 102820 76
2003-02-14 07:55:03 51°14.318 2°54.285 4.7 267 -2.6 102820 76
2003-02-14 07:55:08 51°14.31 2°54.262 4.6 261 -2.6 102820 76
2003-02-14 07:55:14 51°14.3 2°54.232 4.6 273 -2.6 102820 76
2003-02-14 07:55:18 51°14.293 2°54.214 4.1 266 -2.6 102820 76
2003-02-14 07:55:23 51°14.286 2°54.189 4.8 280 -2.6 102820 76
2003-02-14 07:55:28 51°14.277 2°54.165 3.8 259 -2.6 102820 76
2003-02-14 07:55:34 51°14.267 2°54.137 4.8 278 -2.6 102820 76
2003-02-14 07:55:38 51°14.26 2°54.117 3.6 258 -2.6 102820 76
2003-02-14 07:55:43 51°14.252 2°54.093 3.2 277 -2.6 102820 76
2003-02-14 07:55:48 51°14.244 2°54.068 3.4 286 -2.5 102820 76
2003-02-14 07:55:54 51°14.234 2°54.039 3.2 286 -2.5 102820 76
2003-02-14 07:55:58 51°14.227 2°54.02 2.6 273 -2.5 102810 75
2003-02-14 07:56:03 51°14.219 2°53.996 2.9 280 -2.5 102810 75
2003-02-14 07:56:08 51°14.211 2°53.97 2.6 288 -2.5 102810 75
2003-02-14 07:56:13 51°14.202 2°53.947 2.3 266 -2.5 102810 75
2003-02-14 07:56:18 51°14.194 2°53.922 3.3 283 -2.5 102820 75
2003-02-14 07:56:23 51°14.185 2°53.898 3.1 285 -2.5 102820 75
2003-02-14 07:56:28 51°14.177 2°53.873 2.9 278 -2.5 102810 75
2003-02-14 07:56:33 51°14.169 2°53.849 3.1 284 -2.5 102810 75
2003-02-14 07:56:39 51°14.159 2°53.819 3.1 267 -2.4 102820 75
2003-02-14 07:56:44 51°14.151 2°53.794 3.3 264 -2.4 102820 75
2003-02-14 07:56:48 51°14.144 2°53.774 3.5 263 -2.4 102820 75
2003-02-14 07:56:53 51°14.135 2°53.748 3.1 258 -2.4 102820 75
2003-02-14 07:56:58 51°14.127 2°53.722 3.7 261 -2.4 102820 75
2003-02-14 07:57:04 51°14.117 2°53.691 3.5 255 -2.4 102820 75
2003-02-14 07:57:08 51°14.109 2°53.67 3.2 246 -2.4 102820 75
2003-02-14 07:57:13 51°14.101 2°53.643 4 257 -2.4 102820 75
2003-02-14 07:57:19 51°14.09 2°53.612 3.6 267 -2.3 102820 75
2003-02-14 07:57:23 51°14.083 2°53.59 3.6 260 -2.3 102820 75
2003-02-14 07:57:28 51°14.074 2°53.563 3.7 267 -2.4 102820 75
2003-02-14 07:57:32 51°14.067 2°53.542 4.9 262 -2.4 102820 75
2003-02-14 07:57:38 51°14.056 2°53.509 4.7 271 -2.3 102810 75
2003-02-14 07:57:43 51°14.047 2°53.482 4.4 275 -2.3 102810 75
2003-02-14 07:57:48 51°14.037 2°53.455 4.2 273 -2.3 102820 75
2003-02-14 07:57:53 51°14.029 2°53.427 4.8 268 -2.3 102820 75
2003-02-14 07:57:58 51°14.019 2°53.4 4.5 253 -2.3 102820 75
2003-02-14 07:58:03 51°14.01 2°53.373 4.7 264 -2.3 102820 75
2003-02-14 07:58:08 51°14.001 2°53.345 4.4 264 -2.3 102820 75
2003-02-14 07:58:13 51°13.991 2°53.318 4.4 260 -2.3 102820 75
2003-02-14 07:58:18 51°13.983 2°53.29 4.2 261 -2.3 102820 74
2003-02-14 07:58:23 51°13.973 2°53.262 4.8 267 -2.3 102820 74
2003-02-14 07:58:28 51°13.965 2°53.234 4.5 263 -2.2 102820 74
2003-02-14 07:58:34 51°13.953 2°53.201 4.3 271 -2.2 102820 74
2003-02-14 07:58:38 51°13.947 2°53.178 3.5 271 -2.2 102820 74
2003-02-14 07:58:43 51°13.937 2°53.151 4.5 272 -2.2 102820 74
2003-02-14 07:58:48 51°13.928 2°53.123 4.4 277 -2.2 102820 74
2003-02-14 07:58:53 51°13.919 2°53.095 3.9 271 -2.2 102820 74
2003-02-14 07:58:58 51°13.909 2°53.068 3.8 265 -2.2 102820 74
2003-02-14 07:59:03 51°13.901 2°53.039 4 263 -2.2 102820 74
2003-02-14 07:59:08 51°13.891 2°53.012 3.4 250 -2.1 102820 74
2003-02-14 07:59:13 51°13.882 2°52.984 4.7 262 -2.1 102820 74
2003-02-14 07:59:18 51°13.872 2°52.956 5 271 -2.1 102830 74
2003-02-14 07:59:23 51°13.863 2°52.928 4.4 274 -2.1 102830 74
2003-02-14 07:59:28 51°13.854 2°52.9 4.2 267 -2.1 102820 74
2003-02-14 07:59:34 51°13.843 2°52.866 4.4 276 -2.1 102820 74
2003-02-14 07:59:39 51°13.833 2°52.839 3.4 268 -2.1 102820 74
2003-02-14 07:59:43 51°13.827 2°52.816 3.7 274 -2.1 102820 74
2003-02-14 07:59:48 51°13.817 2°52.788 3.1 257 -2 102820 74
2003-02-14 07:59:54 51°13.806 2°52.755 4.5 264 -2 102820 74
2003-02-14 07:59:58 51°13.798 2°52.733 4.1 250 -2 102820 73
2003-02-14 08:00:03 51°13.79 2°52.704 4.5 271 -2 102820 73
2003-02-14 08:00:08 51°13.78 2°52.677 4.1 255 -2 102820 73
2003-02-14 08:00:13 51°13.772 2°52.649 4.7 270 -2 102820 73
2003-02-14 08:00:19 51°13.759 2°52.617 4.6 263 -2 102820 73
2003-02-14 08:00:23 51°13.753 2°52.593 4.7 272 -2 102820 73
2003-02-14 08:00:28 51°13.743 2°52.567 4.1 265 -2 102820 73
2003-02-14 08:00:34 51°13.732 2°52.533 4.1 270 -2 102820 73
2003-02-14 08:00:39 51°13.722 2°52.506 3.8 252 -2 102820 73
2003-02-14 08:00:44 51°13.713 2°52.478 4.7 262 -2 102820 73
2003-02-14 08:00:48 51°13.705 2°52.456 4.9 263 -2 102820 73
2003-02-14 08:00:54 51°13.694 2°52.422 4.6 264 -2 102820 73
2003-02-14 08:00:59 51°13.685 2°52.394 3.8 258 -2 102830 73
2003-02-14 08:01:03 51°13.678 2°52.372 3.9 262 -2 102830 73
2003-02-14 08:01:08 51°13.668 2°52.344 3.7 262 -1.9 102820 73
2003-02-14 08:01:14 51°13.658 2°52.31 3.6 261 -1.9 102820 73
2003-02-14 08:01:18 51°13.65 2°52.288 5.3 267 -1.9 102820 73
2003-02-14 08:01:23 51°13.641 2°52.26 3.7 248 -1.9 102820 73
2003-02-14 08:01:28 51°13.632 2°52.232 4.3 262 -1.9 102820 73
2003-02-14 08:01:34 51°13.621 2°52.198 4.6 250 -1.9 102820 73
2003-02-14 08:01:39 51°13.611 2°52.171 4.5 268 -1.9 102830 72
2003-02-14 08:01:43 51°13.605 2°52.148 4.5 270 -1.9 102830 72
2003-02-14 08:01:48 51°13.595 2°52.12 4.9 258 -1.9 102820 72
2003-02-14 08:01:53 51°13.587 2°52.092 3.9 262 -1.9 102820 72
2003-02-14 08:01:58 51°13.577 2°52.065 4.3 250 -1.9 102830 73
2003-02-14 08:02:03 51°13.569 2°52.036 4.2 265 -1.9 102830 73
2003-02-14 08:02:08 51°13.558 2°52.009 3.6 255 -1.9 102830 73
2003-02-14 08:02:13 51°13.55 2°51.98 5.2 276 -1.9 102830 73
2003-02-14 08:02:18 51°13.54 2°51.953 4.2 266 -1.9 102820 73
2003-02-14 08:02:23 51°13.531 2°51.924 4.7 273 -1.9 102820 73
2003-02-14 08:02:28 51°13.523 2°51.896 3.9 264 -1.9 102820 73
2003-02-14 08:02:33 51°13.513 2°51.869 3.7 261 -1.9 102820 73
2003-02-14 08:02:38 51°13.504 2°51.84 3.5 265 -1.9 102820 73
2003-02-14 08:02:43 51°13.495 2°51.813 3.2 265 -1.9 102820 73
2003-02-14 08:02:48 51°13.486 2°51.785 3.2 258 -1.8 102820 72
2003-02-14 08:02:54 51°13.475 2°51.752 3.5 268 -1.8 102820 72
2003-02-14 08:02:58 51°13.467 2°51.729 4 251 -1.8 102820 72
2003-02-14 08:03:03 51°13.458 2°51.701 4.1 265 -1.8 102820 72
2003-02-14 08:03:08 51°13.449 2°51.673 3.1 249 -1.9 102820 72
2003-02-14 08:03:13 51°13.44 2°51.645 4.3 270 -1.9 102820 72
2003-02-14 08:03:19 51°13.428 2°51.612 4.3 257 -1.8 102820 72
2003-02-14 08:03:24 51°13.419 2°51.585 5.2 272 -1.8 102820 72
2003-02-14 08:03:28 51°13.411 2°51.563 4.4 249 -1.8 102820 72
2003-02-14 08:03:34 51°13.401 2°51.529 5.5 265 -1.8 102820 72
2003-02-14 08:03:38 51°13.392 2°51.508 5.1 258 -1.8 102820 72
2003-02-14 08:03:43 51°13.384 2°51.479 4.6 259 -1.8 102820 72
2003-02-14 08:03:48 51°13.375 2°51.452 4.4 257 -1.8 102830 72
2003-02-14 08:03:54 51°13.363 2°51.418 5.3 268 -1.8 102830 72
2003-02-14 08:03:59 51°13.355 2°51.39 4.7 266 -1.8 102820 72
2003-02-14 08:04:03 51°13.347 2°51.369 4.6 274 -1.8 102820 72
2003-02-14 08:04:08 51°13.338 2°51.34 4.2 264 -1.8 102820 72
2003-02-14 08:04:14 51°13.326 2°51.308 4.2 268 -1.8 102820 72
2003-02-14 08:04:19 51°13.318 2°51.279 3.8 258 -1.8 102830 72
2003-02-14 08:04:23 51°13.31 2°51.258 5.1 271 -1.8 102830 72
2003-02-14 08:04:28 51°13.301 2°51.23 4.8 259 -1.8 102820 72
2003-02-14 08:04:33 51°13.292 2°51.202 5.1 263 -1.8 102820 72
2003-02-14 08:04:39 51°13.281 2°51.168 4.5 265 -1.8 102820 71
2003-02-14 08:04:43 51°13.274 2°51.146 4.3 267 -1.8 102820 71
2003-02-14 08:04:48 51°13.265 2°51.118 4.1 266 -1.8 102830 71
2003-02-14 08:04:54 51°13.253 2°51.085 3.9 264 -1.8 102830 71
2003-02-14 08:04:59 51°13.245 2°51.057 3.9 255 -1.7 102820 71
2003-02-14 08:05:03 51°13.237 2°51.035 4.3 254 -1.7 102820 71
2003-02-14 08:05:08 51°13.228 2°51.007 4.2 258 -1.8 102830 71
2003-02-14 08:05:13 51°13.219 2°50.979 4.9 266 -1.8 102830 71
2003-02-14 08:05:18 51°13.209 2°50.952 4.5 259 -1.7 102830 71
2003-02-14 08:05:24 51°13.198 2°50.918 4.6 262 -1.7 102830 71
2003-02-14 08:05:28 51°13.191 2°50.896 4.8 258 -1.7 102830 71
2003-02-14 08:05:34 51°13.18 2°50.862 5.5 267 -1.7 102830 71
2003-02-14 08:05:39 51°13.17 2°50.835 5 268 -1.7 102830 71
2003-02-14 08:05:43 51°13.164 2°50.812 5.6 269 -1.7 102830 71
2003-02-14 08:05:48 51°13.154 2°50.785 4.7 261 -1.7 102820 71
2003-02-14 08:05:54 51°13.143 2°50.752 4.5 272 -1.7 102820 71
2003-02-14 08:05:58 51°13.136 2°50.729 4.2 256 -1.7 102830 71
2003-02-14 08:06:03 51°13.127 2°50.702 4.6 276 -1.7 102830 71
2003-02-14 08:06:08 51°13.118 2°50.674 4 261 -1.7 102830 71
2003-02-14 08:06:13 51°13.108 2°50.646 4.7 262 -1.7 102830 71
2003-02-14 08:06:18 51°13.099 2°50.618 5.7 269 -1.7 102820 71
2003-02-14 08:06:23 51°13.09 2°50.591 5.1 265 -1.7 102820 71
2003-02-14 08:06:28 51°13.081 2°50.563 5.1 274 -1.7 102820 71
2003-02-14 08:06:34 51°13.069 2°50.53 4.5 269 -1.7 102820 71
2003-02-14 08:06:38 51°13.063 2°50.507 5.2 275 -1.7 102820 71
2003-02-14 08:06:43 51°13.053 2°50.481 5.1 275 -1.7 102820 71
2003-02-14 08:06:48 51°13.044 2°50.452 5.2 274 -1.7 102830 71
2003-02-14 08:06:53 51°13.034 2°50.425 4.6 276 -1.7 102830 71
2003-02-14 08:06:58 51°13.025 2°50.397 4.1 272 -1.7 102830 71
2003-02-14 08:07:03 51°13.016 2°50.37 5 273 -1.7 102830 71
2003-02-14 08:07:08 51°13.007 2°50.342 4 253 -1.7 102830 71
2003-02-14 08:07:14 51°12.996 2°50.31 5.3 273 -1.7 102830 71
2003-02-14 08:07:18 51°12.988 2°50.288 4 261 -1.7 102820 71
2003-02-14 08:07:23 51°12.979 2°50.26 5.3 268 -1.7 102820 71
2003-02-14 08:07:28 51°12.969 2°50.234 4.6 257 -1.7 102830 71
2003-02-14 08:07:34 51°12.958 2°50.201 4.4 264 -1.7 102830 71
2003-02-14 08:07:38 51°12.951 2°50.179 4.3 259 -1.7 102820 71
2003-02-14 08:07:43 51°12.942 2°50.151 4.6 268 -1.7 102820 71
2003-02-14 08:07:48 51°12.933 2°50.123 4.8 270 -1.7 102830 71
2003-02-14 08:07:54 51°12.922 2°50.09 3.9 261 -1.7 102830 71
2003-02-14 08:07:59 51°12.913 2°50.062 4.8 264 -1.7 102830 71
2003-02-14 08:08:03 51°12.906 2°50.04 5.1 267 -1.7 102830 71
2003-02-14 08:08:08 51°12.897 2°50.013 5.3 265 -1.7 102820 71
2003-02-14 08:08:14 51°12.887 2°49.979 5.2 269 -1.7 102820 71
2003-02-14 08:08:19 51°12.877 2°49.952 4.8 262 -1.7 102830 71
2003-02-14 08:08:23 51°12.871 2°49.929 5.1 267 -1.7 102830 71
2003-02-14 08:08:28 51°12.861 2°49.902 4.8 262 -1.7 102830 71
2003-02-14 08:08:33 51°12.852 2°49.874 5.5 259 -1.7 102830 71
2003-02-14 08:08:38 51°12.843 2°49.846 5 258 -1.7 102830 71
2003-02-14 08:08:44 51°12.832 2°49.814 4.9 261 -1.7 102830 71
2003-02-14 08:08:48 51°12.825 2°49.791 4.5 264 -1.7 102820 71
2003-02-14 08:08:54 51°12.814 2°49.758 5 258 -1.7 102820 71
2003-02-14 08:08:59 51°12.805 2°49.731 5.8 270 -1.7 102830 71
2003-02-14 08:09:04 51°12.796 2°49.703 5.3 263 -1.7 102830 71
2003-02-14 08:09:08 51°12.789 2°49.681 6 276 -1.7 102820 71
2003-02-14 08:09:14 51°12.778 2°49.648 4.6 269 -1.7 102820 71
2003-02-14 08:09:18 51°12.771 2°49.625 4.6 277 -1.7 102820 71
2003-02-14 08:09:23 51°12.762 2°49.598 4.3 279 -1.7 102820 71
2003-02-14 08:09:28 51°12.753 2°49.57 4.6 277 -1.7 102820 71
2003-02-14 08:09:34 51°12.742 2°49.537 4.2 276 -1.7 102820 71
2003-02-14 08:09:38 51°12.735 2°49.514 4.1 274 -1.7 102830 71
2003-02-14 08:09:44 51°12.724 2°49.481 4.7 275 -1.7 102830 71
2003-02-14 08:09:48 51°12.716 2°49.459 4.6 279 -1.7 102820 70
2003-02-14 08:09:54 51°12.706 2°49.425 4 272 -1.7 102820 70
2003-02-14 08:09:58 51°12.699 2°49.403 4.7 269 -1.7 102830 70
2003-02-14 08:10:03 51°12.69 2°49.375 5.1 277 -1.7 102830 70
2003-02-14 08:10:08 51°12.68 2°49.348 5.1 277 -1.7 102830 70
2003-02-14 08:10:14 51°12.671 2°49.313 4.1 264 -1.7 102830 70
2003-02-14 08:10:18 51°12.663 2°49.292 4.5 276 -1.7 102830 70
2003-02-14 08:10:23 51°12.654 2°49.264 4.1 263 -1.7 102830 70
2003-02-14 08:10:28 51°12.644 2°49.237 4.1 270 -1.7 102830 70
2003-02-14 08:10:34 51°12.634 2°49.203 3.9 267 -1.7 102830 70
2003-02-14 08:10:38 51°12.627 2°49.181 4.4 278 -1.7 102830 70
2003-02-14 08:10:43 51°12.618 2°49.153 4.4 267 -1.7 102830 70
2003-02-14 08:10:48 51°12.608 2°49.126 4.7 268 -1.7 102830 71
2003-02-14 08:10:54 51°12.598 2°49.092 5 270 -1.7 102830 71
2003-02-14 08:10:58 51°12.591 2°49.07 4.5 264 -1.6 102840 71
2003-02-14 08:11:03 51°12.582 2°49.042 4.8 275 -1.6 102840 71
2003-02-14 08:11:08 51°12.573 2°49.014 4.4 276 -1.6 102830 71
2003-02-14 08:11:14 51°12.563 2°48.98 4.6 279 -1.6 102830 71
2003-02-14 08:11:19 51°12.553 2°48.953 3.9 270 -1.6 102830 71
2003-02-14 08:11:23 51°12.547 2°48.93 4.3 278 -1.6 102830 71
2003-02-14 08:11:28 51°12.537 2°48.903 3.8 272 -1.6 102830 71
2003-02-14 08:11:34 51°12.527 2°48.87 4.2 268 -1.6 102830 71
2003-02-14 08:11:38 51°12.519 2°48.848 4.5 272 -1.6 102830 71
2003-02-14 08:11:44 51°12.509 2°48.814 4.6 270 -1.6 102830 71
2003-02-14 08:11:48 51°12.502 2°48.792 5.3 275 -1.6 102830 71
2003-02-14 08:11:53 51°12.493 2°48.764 4.7 275 -1.6 102830 71
2003-02-14 08:11:58 51°12.483 2°48.738 5.4 270 -1.6 102830 71
2003-02-14 08:12:03 51°12.475 2°48.709 5.3 280 -1.6 102830 71
2003-02-14 08:12:08 51°12.465 2°48.683 4.9 276 -1.6 102830 71
2003-02-14 08:12:14 51°12.455 2°48.649 4.6 262 -1.6 102830 71
2003-02-14 08:12:18 51°12.447 2°48.627 5.2 262 -1.6 102830 71
2003-02-14 08:12:23 51°12.439 2°48.599 4.7 261 -1.6 102830 71
2003-02-14 08:12:28 51°12.43 2°48.572 5.5 275 -1.6 102830 71
2003-02-14 08:12:33 51°12.42 2°48.544 4.1 270 -1.6 102830 71
2003-02-14 08:12:39 51°12.411 2°48.51 4.3 282 -1.6 102830 71
2003-02-14 08:12:43 51°12.403 2°48.489 3.9 264 -1.6 102830 71
2003-02-14 08:12:48 51°12.395 2°48.461 4.3 275 -1.6 102830 71
2003-02-14 08:12:54 51°12.384 2°48.427 4.4 260 -1.6 102830 71
2003-02-14 08:12:58 51°12.377 2°48.405 4.8 262 -1.6 102830 71
2003-02-14 08:13:03 51°12.368 2°48.378 4.7 263 -1.6 102830 71
2003-02-14 08:13:08 51°12.36 2°48.349 4.6 264 -1.6 102830 71
2003-02-14 08:13:14 51°12.349 2°48.316 4.7 277 -1.6 102830 71
2003-02-14 08:13:18 51°12.341 2°48.294 5 269 -1.6 102830 71
2003-02-14 08:13:24 51°12.331 2°48.261 4.3 283 -1.6 102830 71
2003-02-14 08:13:28 51°12.323 2°48.239 4 277 -1.6 102830 71
2003-02-14 08:13:33 51°12.315 2°48.211 3.9 278 -1.6 102830 71
2003-02-14 08:13:38 51°12.306 2°48.184 3.8 271 -1.6 102830 71
2003-02-14 08:13:43 51°12.297 2°48.157 4.9 267 -1.6 102830 71
2003-02-14 08:13:48 51°12.289 2°48.129 5.2 280 -1.6 102830 71
2003-02-14 08:13:54 51°12.276 2°48.097 5.1 265 -1.6 102830 71
2003-02-14 08:13:58 51°12.27 2°48.074 5.5 269 -1.6 102830 71
2003-02-14 08:14:03 51°12.26 2°48.047 4.7 272 -1.6 102830 71
2003-02-14 08:14:08 51°12.252 2°48.019 5.5 280 -1.5 102830 71
2003-02-14 08:14:13 51°12.243 2°47.992 4.6 272 -1.5 102830 71
2003-02-14 08:14:18 51°12.234 2°47.964 5 281 -1.5 102830 71
2003-02-14 08:14:23 51°12.225 2°47.937 4.5 277 -1.5 102830 71
2003-02-14 08:14:28 51°12.216 2°47.909 4 273 -1.5 102830 71
2003-02-14 08:14:34 51°12.205 2°47.877 4.7 278 -1.5 102830 71
2003-02-14 08:14:38 51°12.198 2°47.855 4.6 273 -1.5 102830 71
2003-02-14 08:14:44 51°12.188 2°47.822 4.9 276 -1.5 102830 71
2003-02-14 08:14:48 51°12.181 2°47.8 4.9 278 -1.5 102830 71
2003-02-14 08:14:54 51°12.171 2°47.766 4.7 278 -1.5 102830 71
2003-02-14 08:14:58 51°12.163 2°47.745 5.1 271 -1.5 102830 71
2003-02-14 08:15:03 51°12.155 2°47.718 4.9 281 -1.5 102830 71
2003-02-14 08:15:08 51°12.145 2°47.691 4.2 270 -1.4 102830 71
2003-02-14 08:15:14 51°12.135 2°47.658 4.7 280 -1.4 102830 71
2003-02-14 08:15:19 51°12.126 2°47.631 3.7 271 -1.5 102830 71
2003-02-14 08:15:23 51°12.119 2°47.609 4.2 284 -1.5 102830 71
2003-02-14 08:15:28 51°12.109 2°47.582 5.5 271 -1.5 102830 71
2003-02-14 08:15:34 51°12.099 2°47.549 4.5 271 -1.5 102830 71
2003-02-14 08:15:38 51°12.092 2°47.528 4.8 275 -1.5 102830 71
2003-02-14 08:15:44 51°12.081 2°47.495 4.9 269 -1.5 102830 71
2003-02-14 08:15:48 51°12.074 2°47.473 4.6 274 -1.5 102830 71
2003-02-14 08:15:54 51°12.063 2°47.441 4.6 271 -1.5 102830 71
2003-02-14 08:15:59 51°12.055 2°47.413 4.4 272 -1.6 102830 71
2003-02-14 08:16:04 51°12.045 2°47.387 3.9 278 -1.6 102830 71
2003-02-14 08:16:09 51°12.037 2°47.359 4.6 276 -1.6 102830 71
2003-02-14 08:16:14 51°12.027 2°47.332 4.9 283 -1.6 102830 71
2003-02-14 08:16:18 51°12.021 2°47.31 3.7 275 -1.6 102830 71
2003-02-14 08:16:24 51°12.01 2°47.278 4.3 280 -1.6 102830 71
2003-02-14 08:16:28 51°12.003 2°47.256 4.1 272 -1.6 102830 71
2003-02-14 08:16:34 51°11.992 2°47.223 4.8 265 -1.6 102830 71
2003-02-14 08:16:39 51°11.983 2°47.196 4.6 269 -1.6 102830 71
2003-02-14 08:16:44 51°11.973 2°47.169 5.1 268 -1.6 102830 71
2003-02-14 08:16:48 51°11.966 2°47.147 5 277 -1.5 102830 71
2003-02-14 08:16:54 51°11.956 2°47.114 4.6 286 -1.5 102830 71
2003-02-14 08:16:58 51°11.948 2°47.093 5 285 -1.5 102830 71
2003-02-14 08:17:03 51°11.941 2°47.064 5 280 -1.5 102830 71
2003-02-14 08:17:08 51°11.932 2°47.037 5 288 -1.5 102840 71
2003-02-14 08:17:14 51°11.924 2°47.003 3.9 269 -1.5 102840 71
2003-02-14 08:17:18 51°11.917 2°46.981 3.9 280 -1.6 102840 71
2003-02-14 08:17:24 51°11.908 2°46.947 2.7 273 -1.6 102840 71
2003-02-14 08:17:28 51°11.902 2°46.925 4.2 283 -1.6 102830 71
2003-02-14 08:17:33 51°11.894 2°46.896 2.6 263 -1.6 102830 71
2003-02-14 08:17:38 51°11.887 2°46.868 4 269 -1.6 102840 71
2003-02-14 08:17:44 51°11.878 2°46.833 3.8 273 -1.6 102840 71
2003-02-14 08:17:48 51°11.872 2°46.811 4.5 278 -1.6 102840 71
2003-02-14 08:17:54 51°11.863 2°46.778 4.1 273 -1.6 102840 71
2003-02-14 08:17:58 51°11.858 2°46.754 4 273 -1.6 102840 71
2003-02-14 08:18:04 51°11.848 2°46.721 3.3 278 -1.6 102840 71
2003-02-14 08:18:08 51°11.843 2°46.698 3.2 283 -1.5 102840 72
2003-02-14 08:18:14 51°11.834 2°46.664 4 280 -1.5 102840 72
2003-02-14 08:18:19 51°11.827 2°46.635 3.8 254 -1.5 102840 72
2003-02-14 08:18:23 51°11.82 2°46.613 4.5 271 -1.5 102840 72
2003-02-14 08:18:28 51°11.813 2°46.584 3.7 261 -1.5 102840 72
2003-02-14 08:18:34 51°11.805 2°46.551 4.1 276 -1.5 102840 72
2003-02-14 08:18:38 51°11.798 2°46.528 3.8 281 -1.5 102840 72
2003-02-14 08:18:43 51°11.792 2°46.5 4.3 283 -1.5 102840 72
2003-02-14 08:18:48 51°11.784 2°46.473 3.9 282 -1.5 102840 72
2003-02-14 08:18:53 51°11.777 2°46.443 3.2 283 -1.5 102840 72
2003-02-14 08:18:59 51°11.768 2°46.41 3 274 -1.5 102840 72
2003-02-14 08:19:03 51°11.763 2°46.387 3 279 -1.5 102840 72
2003-02-14 08:19:08 51°11.755 2°46.359 2.6 277 -1.5 102840 72
2003-02-14 08:19:14 51°11.746 2°46.324 3.2 275 -1.5 102840 72
2003-02-14 08:19:18 51°11.741 2°46.301 3.4 274 -1.5 102840 72
2003-02-14 08:19:24 51°11.731 2°46.268 3.1 263 -1.5 102840 72
2003-02-14 08:19:28 51°11.726 2°46.245 2.5 271 -1.5 102840 72
2003-02-14 08:19:34 51°11.717 2°46.211 3.5 266 -1.5 102840 72
2003-02-14 08:19:38 51°11.711 2°46.188 2.7 254 -1.5 102840 72
2003-02-14 08:19:43 51°11.704 2°46.159 2.6 269 -1.5 102840 72
2003-02-14 08:19:48 51°11.697 2°46.131 2.2 249 -1.5 102840 71
2003-02-14 08:19:54 51°11.688 2°46.096 2.5 262 -1.5 102840 71
2003-02-14 08:19:58 51°11.683 2°46.073 3.5 264 -1.5 102840 72
2003-02-14 08:20:04 51°11.674 2°46.039 2.6 252 -1.5 102840 72
2003-02-14 08:20:08 51°11.668 2°46.016 3.3 257 -1.5 102840 72
2003-02-14 08:20:14 51°11.659 2°45.982 3.7 262 -1.5 102840 72
2003-02-14 08:20:19 51°11.652 2°45.953 3.4 256 -1.5 102840 72
2003-02-14 08:20:24 51°11.643 2°45.925 4.4 271 -1.5 102840 72
2003-02-14 08:20:28 51°11.638 2°45.902 3.3 246 -1.5 102840 71
2003-02-14 08:20:34 51°11.628 2°45.869 4.3 259 -1.5 102840 71
2003-02-14 08:20:38 51°11.623 2°45.846 4.5 263 -1.6 102840 71
2003-02-14 08:20:44 51°11.614 2°45.812 4 266 -1.6 102840 71
2003-02-14 08:20:48 51°11.608 2°45.789 3 263 -1.5 102840 71
2003-02-14 08:20:54 51°11.598 2°45.755 3.9 266 -1.5 102840 71
2003-02-14 08:20:58 51°11.593 2°45.732 3.1 249 -1.5 102840 72
2003-02-14 08:21:04 51°11.583 2°45.699 3.4 269 -1.5 102840 72
2003-02-14 08:21:08 51°11.579 2°45.675 3.1 241 -1.5 102850 72
2003-02-14 08:21:14 51°11.568 2°45.642 4.1 263 -1.5 102850 72
2003-02-14 08:21:18 51°11.564 2°45.618 3.5 267 -1.5 102840 72
2003-02-14 08:21:24 51°11.554 2°45.585 3.1 249 -1.5 102840 72
2003-02-14 08:21:28 51°11.549 2°45.563 3.6 276 -1.5 102840 72
2003-02-14 08:21:34 51°11.539 2°45.529 2.5 258 -1.5 102840 72
2003-02-14 08:21:39 51°11.533 2°45.5 3.1 259 -1.5 102840 72
2003-02-14 08:21:44 51°11.524 2°45.472 3.9 265 -1.5 102840 72
2003-02-14 08:21:48 51°11.52 2°45.449 3.5 262 -1.5 102840 72
2003-02-14 08:21:54 51°11.51 2°45.415 4 260 -1.5 102840 72
2003-02-14 08:21:58 51°11.505 2°45.392 4 271 -1.5 102850 72
2003-02-14 08:22:04 51°11.496 2°45.359 3.4 265 -1.5 102850 72
2003-02-14 08:22:08 51°11.489 2°45.337 4.2 275 -1.5 102840 72
2003-02-14 08:22:14 51°11.481 2°45.302 3 261 -1.5 102840 72
2003-02-14 08:22:19 51°11.472 2°45.275 3.6 269 -1.5 102840 72
2003-02-14 08:22:24 51°11.465 2°45.247 3.2 260 -1.5 102840 72
2003-02-14 08:22:28 51°11.458 2°45.225 3.6 272 -1.5 102840 72
2003-02-14 08:22:34 51°11.449 2°45.192 4.2 267 -1.5 102840 72
2003-02-14 08:22:38 51°11.442 2°45.171 4.6 286 -1.5 102850 72
2003-02-14 08:22:44 51°11.432 2°45.138 3.8 285 -1.5 102850 72
2003-02-14 08:22:48 51°11.425 2°45.116 4.3 273 -1.5 102840 72
2003-02-14 08:22:54 51°11.416 2°45.083 3.9 275 -1.5 102840 72
2003-02-14 08:22:58 51°11.409 2°45.062 4.6 273 -1.5 102840 72
2003-02-14 08:23:03 51°11.401 2°45.034 4.6 267 -1.5 102840 72
2003-02-14 08:23:08 51°11.392 2°45.007 3.9 271 -1.5 102840 72
2003-02-14 08:23:14 51°11.383 2°44.973 4.3 272 -1.5 102840 72
2003-02-14 08:23:18 51°11.375 2°44.953 4.8 268 -1.5 102840 72
2003-02-14 08:23:23 51°11.367 2°44.925 4.6 272 -1.5 102840 72
2003-02-14 08:23:28 51°11.359 2°44.897 4.5 271 -1.4 102850 72
2003-02-14 08:23:34 51°11.349 2°44.864 3.7 266 -1.4 102850 72
2003-02-14 08:23:38 51°11.342 2°44.843 4.4 274 -1.4 102850 72
2003-02-14 08:23:44 51°11.333 2°44.81 4.2 277 -1.4 102850 72
2003-02-14 08:23:48 51°11.325 2°44.789 3.9 271 -1.4 102840 72
2003-02-14 08:23:54 51°11.316 2°44.755 3.7 276 -1.4 102840 72
2003-02-14 08:23:59 51°11.308 2°44.728 3.5 282 -1.4 102850 72
2003-02-14 08:24:03 51°11.301 2°44.707 3.5 271 -1.4 102850 72
2003-02-14 08:24:08 51°11.293 2°44.68 3.6 272 -1.4 102850 72
2003-02-14 08:24:13 51°11.285 2°44.652 3.9 277 -1.4 102850 72
2003-02-14 08:24:18 51°11.277 2°44.625 3.8 268 -1.4 102840 72
2003-02-14 08:24:23 51°11.269 2°44.597 4.9 280 -1.4 102840 72
2003-02-14 08:24:28 51°11.26 2°44.57 4.9 282 -1.4 102850 72
2003-02-14 08:24:34 51°11.25 2°44.537 4.7 288 -1.4 102850 72
2003-02-14 08:24:38 51°11.243 2°44.515 4.1 281 -1.4 102850 72
2003-02-14 08:24:44 51°11.234 2°44.482 4.3 284 -1.4 102850 72
2003-02-14 08:24:48 51°11.227 2°44.461 3.9 279 -1.4 102850 72
2003-02-14 08:24:54 51°11.217 2°44.427 4.2 277 -1.4 102850 72
2003-02-14 08:24:58 51°11.21 2°44.405 3.5 273 -1.4 102850 72
2003-02-14 08:25:04 51°11.201 2°44.372 3.1 268 -1.4 102850 72
2003-02-14 08:25:08 51°11.194 2°44.35 4 276 -1.4 102840 72
2003-02-14 08:25:14 51°11.184 2°44.318 4 265 -1.4 102840 72
2003-02-14 08:25:18 51°11.178 2°44.295 4.3 276 -1.4 102850 71
2003-02-14 08:25:24 51°11.168 2°44.262 3.7 279 -1.4 102850 71
2003-02-14 08:25:28 51°11.162 2°44.24 3.6 264 -1.4 102850 71
2003-02-14 08:25:34 51°11.151 2°44.208 3.8 273 -1.4 102850 71
2003-02-14 08:25:38 51°11.145 2°44.186 3.6 278 -1.4 102850 71
2003-02-14 08:25:43 51°11.136 2°44.159 4.8 278 -1.4 102850 71
2003-02-14 08:25:48 51°11.129 2°44.131 4.9 267 -1.4 102850 71
2003-02-14 08:25:54 51°11.118 2°44.098 5.1 265 -1.4 102850 71
2003-02-14 08:25:58 51°11.113 2°44.076 4.9 272 -1.4 102840 72
2003-02-14 08:26:03 51°11.104 2°44.049 4.2 279 -1.4 102840 72
2003-02-14 08:26:08 51°11.097 2°44.021 4.1 273 -1.4 102840 72
2003-02-14 08:26:13 51°11.088 2°43.994 3.7 266 -1.4 102840 72
2003-02-14 08:26:18 51°11.081 2°43.965 3.7 270 -1.4 102840 72
2003-02-14 08:26:23 51°11.072 2°43.939 3.7 271 -1.4 102840 72
2003-02-14 08:26:28 51°11.065 2°43.911 3.6 273 -1.4 102840 72
2003-02-14 08:26:34 51°11.054 2°43.879 3.9 283 -1.4 102840 72
2003-02-14 08:26:38 51°11.049 2°43.857 3.6 277 -1.4 102840 72
2003-02-14 08:26:44 51°11.038 2°43.825 3.3 268 -1.4 102840 72
2003-02-14 08:26:48 51°11.033 2°43.802 3.5 279 -1.4 102840 71
2003-02-14 08:26:54 51°11.022 2°43.77 4.5 273 -1.4 102840 71
2003-02-14 08:26:59 51°11.014 2°43.744 5.4 278 -1.4 102850 71
2003-02-14 08:27:03 51°11.008 2°43.721 5 271 -1.4 102850 71
2003-02-14 08:27:08 51°11 2°43.694 5.2 275 -1.4 102840 71
2003-02-14 08:27:14 51°10.99 2°43.662 4.2 267 -1.4 102840 71
2003-02-14 08:27:18 51°10.984 2°43.64 4.5 279 -1.4 102850 71
2003-02-14 08:27:24 51°10.974 2°43.608 4.6 278 -1.4 102850 71
2003-02-14 08:27:28 51°10.967 2°43.587 4.9 281 -1.4 102840 71
2003-02-14 08:27:34 51°10.957 2°43.554 3.5 270 -1.4 102840 71
2003-02-14 08:27:39 51°10.949 2°43.527 4.6 283 -1.4 102840 71
2003-02-14 08:27:44 51°10.941 2°43.5 3.4 279 -1.4 102840 71
2003-02-14 08:27:48 51°10.935 2°43.479 3.8 276 -1.4 102840 71
2003-02-14 08:27:54 51°10.925 2°43.446 3.1 267 -1.4 102840 71
2003-02-14 08:27:58 51°10.919 2°43.424 4.3 272 -1.4 102840 71
2003-02-14 08:28:04 51°10.909 2°43.391 4 276 -1.4 102840 71
2003-02-14 08:28:08 51°10.903 2°43.369 4.4 279 -1.4 102850 71
2003-02-14 08:28:14 51°10.892 2°43.338 4 275 -1.4 102850 71
2003-02-14 08:28:18 51°10.885 2°43.316 4.1 275 -1.4 102840 71
2003-02-14 08:28:23 51°10.878 2°43.288 3.5 277 -1.4 102840 71
2003-02-14 08:28:28 51°10.869 2°43.262 3.7 274 -1.4 102850 71
2003-02-14 08:28:34 51°10.86 2°43.228 3.5 274 -1.4 102850 71
2003-02-14 08:28:39 51°10.851 2°43.202 3.4 264 -1.4 102840 71
2003-02-14 08:28:44 51°10.843 2°43.174 3.7 272 -1.4 102840 71
2003-02-14 08:28:48 51°10.836 2°43.153 3.6 260 -1.4 102850 71
2003-02-14 08:28:54 51°10.826 2°43.12 3.5 264 -1.4 102850 71
2003-02-14 08:28:59 51°10.818 2°43.093 3.7 252 -1.4 102850 71
2003-02-14 08:29:04 51°10.809 2°43.067 3.9 270 -1.4 102850 71
2003-02-14 08:29:08 51°10.803 2°43.045 3 252 -1.4 102840 71
2003-02-14 08:29:14 51°10.793 2°43.012 4.2 270 -1.4 102840 71
2003-02-14 08:29:18 51°10.787 2°42.99 3.9 266 -1.4 102840 71
2003-02-14 08:29:24 51°10.777 2°42.958 2.6 278 -1.4 102840 71
2003-02-14 08:29:28 51°10.771 2°42.936 5.1 280 -1.4 102840 71
2003-02-14 08:29:33 51°10.762 2°42.909 5 285 -1.4 102840 71
2003-02-14 08:29:38 51°10.754 2°42.882 4.9 283 -1.4 102840 71
2003-02-14 08:29:43 51°10.746 2°42.854 4.2 283 -1.4 102840 71
2003-02-14 08:29:48 51°10.737 2°42.827 3.8 276 -1.4 102840 72
2003-02-14 08:29:54 51°10.727 2°42.795 5 285 -1.4 102840 72
2003-02-14 08:29:58 51°10.72 2°42.774 3.8 281 -1.4 102840 72
2003-02-14 08:30:04 51°10.711 2°42.74 4.1 282 -1.4 102840 72
2003-02-14 08:30:08 51°10.705 2°42.719 4.2 277 -1.4 102840 72
2003-02-14 08:30:13 51°10.697 2°42.692 3.8 278 -1.4 102840 72
2003-02-14 08:30:18 51°10.688 2°42.665 3.9 281 -1.4 102840 72
2003-02-14 08:30:24 51°10.679 2°42.632 3.2 271 -1.4 102840 72
2003-02-14 08:30:28 51°10.672 2°42.61 3.9 282 -1.4 102850 72
2003-02-14 08:30:34 51°10.662 2°42.578 3.8 286 -1.4 102850 72
2003-02-14 08:30:38 51°10.655 2°42.557 4 278 -1.4 102840 72
2003-02-14 08:30:43 51°10.647 2°42.53 4.4 278 -1.4 102840 72
2003-02-14 08:30:48 51°10.639 2°42.503 4.8 278 -1.4 102850 72
2003-02-14 08:30:54 51°10.629 2°42.47 4.2 272 -1.4 102850 72
2003-02-14 08:30:58 51°10.622 2°42.449 4.6 276 -1.4 102840 72
2003-02-14 08:31:04 51°10.613 2°42.416 4.1 280 -1.4 102840 72
2003-02-14 08:31:08 51°10.606 2°42.395 4.6 279 -1.4 102840 72
2003-02-14 08:31:14 51°10.597 2°42.362 3.8 279 -1.4 102840 72
2003-02-14 08:31:18 51°10.589 2°42.341 4.1 276 -1.4 102840 72
2003-02-14 08:31:23 51°10.582 2°42.312 3.5 278 -1.4 102840 72
2003-02-14 08:31:28 51°10.573 2°42.287 3.6 286 -1.4 102840 72
2003-02-14 08:31:33 51°10.565 2°42.26 4.3 265 -1.4 102840 72
2003-02-14 08:31:38 51°10.557 2°42.233 4.8 270 -1.4 102850 72
2003-02-14 08:31:43 51°10.549 2°42.206 4.7 276 -1.4 102850 72
2003-02-14 08:31:48 51°10.541 2°42.18 4.5 277 -1.4 102840 72
2003-02-14 08:31:54 51°10.531 2°42.147 4.5 284 -1.4 102840 72
2003-02-14 08:31:58 51°10.525 2°42.126 4.8 283 -1.4 102840 72
2003-02-14 08:32:03 51°10.516 2°42.099 4.2 286 -1.4 102840 72
2003-02-14 08:32:08 51°10.508 2°42.073 4.8 287 -1.4 102840 72
2003-02-14 08:32:14 51°10.498 2°42.04 4.2 281 -1.4 102840 72
2003-02-14 08:32:19 51°10.489 2°42.014 3.8 274 -1.4 102840 72
2003-02-14 08:32:24 51°10.482 2°41.986 5.3 274 -1.4 102840 72
2003-02-14 08:32:28 51°10.475 2°41.965 5.1 267 -1.4 102840 72
2003-02-14 08:32:34 51°10.465 2°41.933 5.7 276 -1.4 102840 72
2003-02-14 08:32:39 51°10.457 2°41.906 5 270 -1.4 102850 72
2003-02-14 08:32:44 51°10.449 2°41.88 5.4 280 -1.4 102850 72
2003-02-14 08:32:48 51°10.442 2°41.858 4.7 276 -1.4 102850 72
2003-02-14 08:32:54 51°10.432 2°41.826 4.5 283 -1.4 102850 72
2003-02-14 08:32:58 51°10.426 2°41.804 3.7 270 -1.4 102840 72
2003-02-14 08:33:04 51°10.416 2°41.772 4.3 288 -1.4 102840 72
2003-02-14 08:33:08 51°10.409 2°41.751 3.2 276 -1.4 102840 72
2003-02-14 08:33:14 51°10.4 2°41.719 4 284 -1.4 102840 72
2003-02-14 08:33:18 51°10.393 2°41.697 3.5 261 -1.4 102840 72
2003-02-14 08:33:23 51°10.386 2°41.669 4.8 286 -1.4 102840 72
2003-02-14 08:33:28 51°10.377 2°41.644 4.4 270 -1.4 102840 72
2003-02-14 08:33:34 51°10.368 2°41.612 5.6 278 -1.4 102840 72
2003-02-14 08:33:38 51°10.36 2°41.591 5 274 -1.4 102840 72
2003-02-14 08:33:43 51°10.354 2°41.563 5.5 279 -1.4 102840 72
2003-02-14 08:33:48 51°10.344 2°41.537 5.1 274 -1.4 102850 72
2003-02-14 08:33:54 51°10.335 2°41.505 6 285 -1.4 102850 72
2003-02-14 08:33:59 51°10.327 2°41.479 5.2 280 -1.4 102840 72
2003-02-14 08:34:03 51°10.321 2°41.457 4.5 279 -1.4 102840 72
2003-02-14 08:34:08 51°10.313 2°41.43 3.8 275 -1.4 102840 72
2003-02-14 08:34:13 51°10.305 2°41.404 4.3 275 -1.4 102840 72
2003-02-14 08:34:19 51°10.295 2°41.372 4.1 268 -1.4 102840 72
2003-02-14 08:34:24 51°10.287 2°41.346 5.9 285 -1.4 102840 72
2003-02-14 08:34:28 51°10.28 2°41.325 5.1 291 -1.4 102840 72
2003-02-14 08:34:34 51°10.271 2°41.293 5.5 294 -1.4 102840 72
2003-02-14 08:34:38 51°10.263 2°41.273 4.8 293 -1.4 102840 72
2003-02-14 08:34:43 51°10.256 2°41.246 5 285 -1.4 102840 72
2003-02-14 08:34:48 51°10.247 2°41.22 4 281 -1.4 102850 72
2003-02-14 08:34:54 51°10.237 2°41.188 4.7 298 -1.4 102850 72
2003-02-14 08:34:59 51°10.23 2°41.161 3.9 291 -1.4 102840 72
2003-02-14 08:35:04 51°10.221 2°41.135 4.5 294 -1.4 102840 72
2003-02-14 08:35:08 51°10.215 2°41.114 3.7 294 -1.4 102840 72
2003-02-14 08:35:14 51°10.205 2°41.082 3.3 281 -1.4 102840 72
2003-02-14 08:35:18 51°10.199 2°41.06 3.8 287 -1.4 102840 72
2003-02-14 08:35:23 51°10.19 2°41.035 3.2 278 -1.4 102840 72
2003-02-14 08:35:28 51°10.183 2°41.008 4 288 -1.4 102850 72
2003-02-14 08:35:34 51°10.173 2°40.977 3.3 287 -1.4 102850 72
2003-02-14 08:35:39 51°10.165 2°40.95 3.6 285 -1.4 102840 72
2003-02-14 08:35:43 51°10.159 2°40.929 3.1 287 -1.4 102840 72
2003-02-14 08:35:48 51°10.151 2°40.902 3.2 288 -1.4 102850 72
2003-02-14 08:35:53 51°10.143 2°40.876 2.8 281 -1.4 102850 72
2003-02-14 08:35:59 51°10.134 2°40.844 2.8 280 -1.4 102850 72
2003-02-14 08:36:04 51°10.125 2°40.818 3.9 282 -1.4 102850 72
2003-02-14 08:36:08 51°10.119 2°40.796 3.8 286 -1.4 102850 72
2003-02-14 08:36:14 51°10.11 2°40.765 5.2 287 -1.4 102850 72
2003-02-14 08:36:19 51°10.101 2°40.739 5.3 301 -1.4 102850 72
2003-02-14 08:36:24 51°10.094 2°40.712 3.6 287 -1.4 102850 72
2003-02-14 08:36:28 51°10.087 2°40.691 4.3 286 -1.4 102850 72
2003-02-14 08:36:34 51°10.078 2°40.659 4.5 279 -1.4 102850 72
2003-02-14 08:36:38 51°10.071 2°40.638 4.7 284 -1.4 102850 73
2003-02-14 08:36:44 51°10.062 2°40.606 4.4 285 -1.4 102850 73
2003-02-14 08:36:48 51°10.055 2°40.585 4.1 284 -1.4 102850 73
2003-02-14 08:36:54 51°10.046 2°40.553 3.6 284 -1.4 102850 73
2003-02-14 08:36:58 51°10.04 2°40.532 3.2 285 -1.4 102850 73
2003-02-14 08:37:04 51°10.03 2°40.5 3.5 283 -1.4 102850 73
2003-02-14 08:37:08 51°10.024 2°40.478 4.1 273 -1.4 102850 73
2003-02-14 08:37:14 51°10.015 2°40.446 4.3 292 -1.4 102850 73
2003-02-14 08:37:18 51°10.008 2°40.425 4.1 290 -1.4 102850 73
2003-02-14 08:37:23 51°10.001 2°40.398 3.8 283 -1.4 102850 73
2003-02-14 08:37:28 51°9.992 2°40.372 4.4 282 -1.4 102850 73
2003-02-14 08:37:34 51°9.983 2°40.339 3.8 288 -1.4 102850 73
2003-02-14 08:37:38 51°9.977 2°40.318 3.6 274 -1.4 102850 73
2003-02-14 08:37:43 51°9.969 2°40.291 3.1 265 -1.4 102850 73
2003-02-14 08:37:48 51°9.961 2°40.264 3.2 264 -1.4 102850 73
2003-02-14 08:37:53 51°9.952 2°40.238 3.2 261 -1.4 102850 73
2003-02-14 08:37:58 51°9.945 2°40.21 3.7 270 -1.4 102850 73
2003-02-14 08:38:03 51°9.936 2°40.184 3.4 271 -1.4 102850 73
2003-02-14 08:38:08 51°9.929 2°40.157 3.5 277 -1.4 102850 73
2003-02-14 08:38:14 51°9.919 2°40.125 3.4 279 -1.4 102850 73
2003-02-14 08:38:18 51°9.913 2°40.103 3.4 269 -1.4 102850 73
2003-02-14 08:38:24 51°9.903 2°40.071 3.7 279 -1.4 102850 73
2003-02-14 08:38:28 51°9.896 2°40.05 4.4 272 -1.4 102850 73
2003-02-14 08:38:34 51°9.886 2°40.017 4.2 282 -1.4 102850 73
2003-02-14 08:38:38 51°9.88 2°39.996 3.7 278 -1.4 102850 73
2003-02-14 08:38:44 51°9.87 2°39.963 4.5 292 -1.4 102850 73
2003-02-14 08:38:48 51°9.864 2°39.942 2.9 270 -1.4 102850 73
2003-02-14 08:38:54 51°9.855 2°39.909 4.7 282 -1.4 102850 73
2003-02-14 08:38:58 51°9.848 2°39.887 3.9 267 -1.4 102850 73
2003-02-14 08:39:04 51°9.839 2°39.855 4 277 -1.4 102850 73
2003-02-14 08:39:08 51°9.832 2°39.833 3.8 278 -1.4 102850 73
2003-02-14 08:39:14 51°9.823 2°39.8 3.6 282 -1.4 102850 73
2003-02-14 08:39:19 51°9.816 2°39.773 3.8 282 -1.4 102860 73
2003-02-14 08:39:24 51°9.808 2°39.746 3.7 280 -1.4 102860 73
2003-02-14 08:39:28 51°9.802 2°39.724 3 275 -1.4 102850 74
2003-02-14 08:39:33 51°9.793 2°39.697 3.5 255 -1.4 102850 74
2003-02-14 08:39:39 51°9.785 2°39.664 3.3 257 -1.4 102850 74
2003-02-14 08:39:43 51°9.777 2°39.643 3.9 271 -1.4 102850 74
2003-02-14 08:39:48 51°9.77 2°39.616 4.2 269 -1.4 102850 73
2003-02-14 08:39:54 51°9.76 2°39.584 4.5 276 -1.4 102850 73
2003-02-14 08:39:58 51°9.754 2°39.562 3.8 272 -1.4 102850 73
2003-02-14 08:40:04 51°9.745 2°39.53 4.1 272 -1.4 102850 73
2003-02-14 08:40:08 51°9.739 2°39.507 3.7 275 -1.4 102850 74
2003-02-14 08:40:14 51°9.729 2°39.475 3.1 276 -1.4 102850 74
2003-02-14 08:40:18 51°9.723 2°39.453 3.4 282 -1.4 102850 74
2003-02-14 08:40:24 51°9.713 2°39.421 3.2 272 -1.4 102850 74
2003-02-14 08:40:28 51°9.707 2°39.399 3.5 276 -1.4 102850 74
2003-02-14 08:40:34 51°9.697 2°39.367 4.1 275 -1.4 102850 74
2003-02-14 08:40:38 51°9.69 2°39.346 2.7 268 -1.4 102850 74
2003-02-14 08:40:44 51°9.681 2°39.313 2.8 272 -1.4 102850 74
2003-02-14 08:40:48 51°9.676 2°39.291 2.8 269 -1.4 102860 74
2003-02-14 08:40:54 51°9.666 2°39.259 4.1 256 -1.4 102860 74
2003-02-14 08:40:58 51°9.66 2°39.237 4.4 276 -1.4 102850 74
2003-02-14 08:41:03 51°9.652 2°39.21 3.6 272 -1.4 102850 74
2003-02-14 08:41:08 51°9.644 2°39.183 3.9 274 -1.4 102850 74
2003-02-14 08:41:14 51°9.636 2°39.15 4.5 278 -1.4 102850 74
2003-02-14 08:41:19 51°9.627 2°39.124 4.2 275 -1.3 102850 74
2003-02-14 08:41:23 51°9.621 2°39.102 4.2 275 -1.3 102850 74
2003-02-14 08:41:28 51°9.613 2°39.074 3.8 276 -1.3 102850 74
2003-02-14 08:41:34 51°9.604 2°39.042 3.3 272 -1.3 102850 74
2003-02-14 08:41:39 51°9.595 2°39.015 3.5 269 -1.3 102860 74
2003-02-14 08:41:43 51°9.59 2°38.993 4.1 266 -1.3 102860 74
2003-02-14 08:41:48 51°9.581 2°38.967 3.9 269 -1.3 102850 74
2003-02-14 08:41:54 51°9.572 2°38.934 4.3 279 -1.3 102850 74
2003-02-14 08:41:59 51°9.564 2°38.907 3 261 -1.3 102850 74
2003-02-14 08:42:04 51°9.556 2°38.88 3.7 279 -1.3 102850 74
2003-02-14 08:42:08 51°9.549 2°38.859 3.9 268 -1.3 102860 74
2003-02-14 08:42:14 51°9.54 2°38.826 4.9 281 -1.3 102860 74
2003-02-14 08:42:18 51°9.533 2°38.805 4.4 276 -1.3 102850 73
2003-02-14 08:42:24 51°9.525 2°38.772 3.8 277 -1.3 102850 73
2003-02-14 08:42:28 51°9.518 2°38.751 4.2 273 -1.3 102850 73
2003-02-14 08:42:34 51°9.509 2°38.717 3.2 260 -1.3 102850 73
2003-02-14 08:42:38 51°9.503 2°38.696 3.9 273 -1.3 102850 73
2003-02-14 08:42:44 51°9.493 2°38.663 3.7 258 -1.3 102850 73
2003-02-14 08:42:48 51°9.487 2°38.641 5 269 -1.3 102850 73
2003-02-14 08:42:54 51°9.477 2°38.609 3.4 270 -1.3 102850 73
2003-02-14 08:42:59 51°9.469 2°38.582 4.1 271 -1.3 102850 73
2003-02-14 08:43:04 51°9.461 2°38.555 3.7 262 -1.3 102850 73
2003-02-14 08:43:08 51°9.456 2°38.533 4 273 -1.3 102850 73
2003-02-14 08:43:14 51°9.445 2°38.502 3.2 262 -1.3 102850 73
2003-02-14 08:43:18 51°9.439 2°38.479 3.5 266 -1.3 102850 73
2003-02-14 08:43:23 51°9.43 2°38.453 3.2 260 -1.3 102850 73
2003-02-14 08:43:28 51°9.423 2°38.426 3.7 274 -1.3 102860 73
2003-02-14 08:43:34 51°9.414 2°38.394 3.5 275 -1.3 102860 73
2003-02-14 08:43:38 51°9.407 2°38.372 3.5 273 -1.3 102850 73
2003-02-14 08:43:44 51°9.399 2°38.34 3.6 272 -1.3 102850 73
2003-02-14 08:43:48 51°9.391 2°38.319 3.4 268 -1.3 102850 73
2003-02-14 08:43:54 51°9.383 2°38.286 3.2 272 -1.3 102850 73
2003-02-14 08:43:58 51°9.376 2°38.265 3 263 -1.3 102850 73
2003-02-14 08:44:04 51°9.367 2°38.233 4.3 286 -1.3 102850 73
2003-02-14 08:44:08 51°9.36 2°38.212 3.5 261 -1.3 102850 73
2003-02-14 08:44:14 51°9.351 2°38.18 4.2 277 -1.3 102850 73
2003-02-14 08:44:18 51°9.345 2°38.159 3.9 258 -1.3 102850 73
2003-02-14 08:44:24 51°9.336 2°38.127 3.2 273 -1.3 102850 73
2003-02-14 08:44:28 51°9.33 2°38.105 3.5 265 -1.3 102850 73
2003-02-14 08:44:34 51°9.32 2°38.074 2.7 251 -1.3 102850 73
2003-02-14 08:44:39 51°9.313 2°38.047 3.4 259 -1.3 102850 73
2003-02-14 08:44:43 51°9.306 2°38.026 2.9 251 -1.3 102850 73
2003-02-14 08:44:48 51°9.3 2°37.999 3.5 270 -1.3 102850 73
2003-02-14 08:44:54 51°9.29 2°37.967 3 255 -1.3 102850 73
2003-02-14 08:44:59 51°9.282 2°37.94 3.5 264 -1.3 102850 73
2003-02-14 08:45:03 51°9.276 2°37.919 3.6 266 -1.3 102850 73
2003-02-14 08:45:08 51°9.269 2°37.892 3.9 271 -1.3 102850 73
2003-02-14 08:45:14 51°9.259 2°37.861 3.3 266 -1.3 102850 73
2003-02-14 08:45:18 51°9.253 2°37.839 3.3 264 -1.3 102850 73
2003-02-14 08:45:23 51°9.245 2°37.812 3 271 -1.3 102850 73
2003-02-14 08:45:28 51°9.238 2°37.786 3.9 278 -1.3 102850 73
2003-02-14 08:45:34 51°9.228 2°37.754 3.3 258 -1.3 102850 73
2003-02-14 08:45:38 51°9.222 2°37.733 3.7 262 -1.3 102850 73
2003-02-14 08:45:44 51°9.213 2°37.701 4.3 272 -1.3 102850 73
2003-02-14 08:45:48 51°9.207 2°37.68 4.3 272 -1.3 102850 73
2003-02-14 08:45:54 51°9.197 2°37.649 3.8 276 -1.3 102850 73
2003-02-14 08:45:58 51°9.19 2°37.63 3.9 279 -1.3 102850 73
2003-02-14 08:46:04 51°9.18 2°37.603 3.7 285 -1.3 102850 73
2003-02-14 08:46:08 51°9.173 2°37.586 3.9 290 -1.3 102850 73
2003-02-14 08:46:14 51°9.164 2°37.561 3.3 294 -1.3 102850 73
2003-02-14 08:46:18 51°9.158 2°37.545 3 298 -1.3 102850 73
2003-02-14 08:46:24 51°9.15 2°37.521 2.6 302 -1.3 102850 73
2003-02-14 08:46:28 51°9.145 2°37.505 1.8 300 -1.3 102860 73
2003-02-14 08:46:34 51°9.139 2°37.481 2.2 303 -1.3 102860 73
2003-02-14 08:46:39 51°9.134 2°37.462 2.1 307 -1.3 102860 73
2003-02-14 08:46:44 51°9.129 2°37.443 0.9 343 -1.3 102860 73
2003-02-14 08:46:48 51°9.126 2°37.429 1 325 -1.3 102850 73
2003-02-14 08:46:54 51°9.121 2°37.409 0.7 324 -1.3 102850 73
2003-02-14 08:46:58 51°9.118 2°37.396 0.9 325 -1.3 102850 73
2003-02-14 08:47:04 51°9.114 2°37.378 0.9 328 -1.3 102850 73
2003-02-14 08:47:08 51°9.112 2°37.366 0.8 350 -1.3 102860 73
2003-02-14 08:47:14 51°9.108 2°37.349 0.8 333 -1.3 102860 73
2003-02-14 08:47:19 51°9.106 2°37.335 0.9 2 -1.3 102860 73
2003-02-14 08:47:24 51°9.104 2°37.322 1.7 6 -1.3 102860 73
2003-02-14 08:47:28 51°9.103 2°37.312 1.3 4 -1.2 102860 73
2003-02-14 08:47:34 51°9.101 2°37.298 1.7 21 -1.2 102860 73
2003-02-14 08:47:38 51°9.101 2°37.289 1.8 26 -1.2 102860 73
2003-02-14 08:47:44 51°9.1 2°37.276 2 34 -1.2 102860 73
2003-02-14 08:47:49 51°9.1 2°37.267 2.5 37 -1.2 102840 74
2003-02-14 08:47:54 51°9.1 2°37.259 2.4 31 -1.2 102840 74
2003-02-14 08:47:59 51°9.099 2°37.253 2.3 320 -1.2 102850 74
2003-02-14 08:48:04 51°9.099 2°37.248 3.1 36 -1.2 102850 74
2003-02-14 08:48:08 51°9.099 2°37.245 3.9 25 -1.2 102840 73
2003-02-14 08:48:14 51°9.098 2°37.242 4.3 20 -1.2 102840 73
2003-02-14 08:48:18 51°9.098 2°37.242 4.5 17 -1.2 102840 74
2003-02-14 08:48:24 51°9.098 2°37.242 5.1 20 -1.2 102840 74
2003-02-14 08:48:28 51°9.098 2°37.241 5.4 13 -1.2 102840 74
2003-02-14 08:48:34 51°9.097 2°37.242 5.6 8 -1.2 102840 74
2003-02-14 08:48:39 51°9.097 2°37.241 4.8 4 -1.2 102850 73
2003-02-14 08:48:44 51°9.096 2°37.241 4.8 1 -1.2 102850 73
2003-02-14 08:48:48 51°9.096 2°37.241 4.8 3 -1.2 102840 73
2003-02-14 08:48:52 51°9.095 2°37.241 4.7 357 -1.2 102840 73
2003-02-14 08:48:58 51°9.094 2°37.24 4.7 352 -1.3 102850 73
2003-02-14 08:49:04 51°9.093 2°37.239 3.6 349 -1.3 102850 73
2003-02-14 08:49:08 51°9.092 2°37.239 4.2 353 -1.3 102850 73
2003-02-14 08:49:14 51°9.09 2°37.237 4.3 351 -1.3 102850 73
2003-02-14 08:49:19 51°9.089 2°37.236 3.7 349 -1.4 102850 73
2003-02-14 08:49:23 51°9.088 2°37.235 3.1 344 -1.4 102850 73
2003-02-14 08:49:28 51°9.086 2°37.234 4.2 356 -1.4 102840 73
2003-02-14 08:49:34 51°9.085 2°37.233 4.5 357 -1.4 102840 73
2003-02-14 08:49:38 51°9.084 2°37.232 3.6 345 -1.4 102850 73
2003-02-14 08:49:43 51°9.082 2°37.231 4.8 358 -1.4 102850 73
2003-02-14 08:49:48 51°9.081 2°37.231 4.5 8 -1.4 102840 73
2003-02-14 08:49:54 51°9.08 2°37.23 4.9 356 -1.4 102840 73
2003-02-14 08:49:58 51°9.079 2°37.23 5.2 355 -1.4 102840 73
2003-02-14 08:50:04 51°9.077 2°37.229 4.7 357 -1.4 102840 73
2003-02-14 08:50:08 51°9.076 2°37.228 4.4 356 -1.4 102840 73
2003-02-14 08:50:14 51°9.075 2°37.227 4.9 355 -1.4 102840 73
2003-02-14 08:50:18 51°9.074 2°37.227 4.9 354 -1.5 102850 73
2003-02-14 08:50:24 51°9.073 2°37.226 3.5 342 -1.5 102850 73
2003-02-14 08:50:28 51°9.072 2°37.226 5.4 350 -1.5 102850 73
2003-02-14 08:50:34 51°9.071 2°37.225 4.5 357 -1.5 102850 73
2003-02-14 08:50:38 51°9.07 2°37.225 4.7 358 -1.5 102850 73
2003-02-14 08:50:43 51°9.069 2°37.224 4.7 358 -1.5 102850 73
2003-02-14 08:50:48 51°9.068 2°37.223 4.6 1 -1.5 102850 73
2003-02-14 08:50:54 51°9.066 2°37.223 4.6 357 -1.5 102850 73
2003-02-14 08:50:58 51°9.066 2°37.223 4.9 359 -1.5 102850 73
2003-02-14 08:51:03 51°9.064 2°37.222 4.5 359 -1.5 102850 73
2003-02-14 08:51:08 51°9.063 2°37.221 4.4 358 -1.5 102850 73
2003-02-14 08:51:14 51°9.062 2°37.22 4.8 358 -1.5 102850 73
2003-02-14 08:51:18 51°9.062 2°37.22 5.1 356 -1.5 102850 73
2003-02-14 08:51:24 51°9.061 2°37.22 4.8 355 -1.5 102850 73
2003-02-14 08:51:28 51°9.06 2°37.219 4.4 352 -1.5 102850 73
2003-02-14 08:51:34 51°9.059 2°37.219 4.5 354 -1.5 102850 73
2003-02-14 08:51:39 51°9.058 2°37.218 4.2 355 -1.5 102850 73
2003-02-14 08:51:43 51°9.057 2°37.218 5.2 355 -1.5 102850 73
2003-02-14 08:51:48 51°9.056 2°37.218 5 358 -1.5 102850 73
2003-02-14 08:51:54 51°9.055 2°37.218 3.7 351 -1.5 102850 73
2003-02-14 08:51:59 51°9.054 2°37.218 3.8 346 -1.6 102850 73
2003-02-14 08:52:03 51°9.054 2°37.217 3.5 354 -1.6 102850 73
2003-02-14 08:52:08 51°9.053 2°37.218 4 348 -1.6 102850 73
2003-02-14 08:52:13 51°9.052 2°37.218 4.1 347 -1.6 102850 73
2003-02-14 08:52:18 51°9.051 2°37.218 3.7 344 -1.6 102850 73
2003-02-14 08:52:23 51°9.05 2°37.218 3.7 346 -1.6 102850 73
2003-02-14 08:52:28 51°9.049 2°37.218 3.4 351 -1.6 102850 73
2003-02-14 08:52:34 51°9.048 2°37.218 3.7 357 -1.6 102850 73
2003-02-14 08:52:38 51°9.048 2°37.218 3.9 351 -1.6 102850 73
2003-02-14 08:52:43 51°9.047 2°37.218 3.2 2 -1.6 102850 73
2003-02-14 08:52:48 51°9.046 2°37.219 2.5 338 -1.6 102850 73
2003-02-14 08:52:54 51°9.046 2°37.219 2.6 336 -1.6 102850 73
2003-02-14 08:52:59 51°9.045 2°37.22 3.3 328 -1.6 102850 73
2003-02-14 08:53:03 51°9.044 2°37.221 4.9 356 -1.6 102850 73
2003-02-14 08:53:08 51°9.044 2°37.221 4.5 353 -1.6 102850 73
2003-02-14 08:53:14 51°9.043 2°37.221 4 354 -1.6 102850 73
2003-02-14 08:53:18 51°9.043 2°37.221 3.6 350 -1.6 102850 74
2003-02-14 08:53:24 51°9.042 2°37.222 3.6 349 -1.6 102850 74
2003-02-14 08:53:28 51°9.042 2°37.222 4.1 355 -1.6 102850 74
2003-02-14 08:53:33 51°9.041 2°37.223 3.4 346 -1.6 102850 74
2003-02-14 08:53:39 51°9.041 2°37.224 3.2 346 -1.6 102850 74
2003-02-14 08:53:43 51°9.04 2°37.224 2.2 333 -1.6 102850 74
2003-02-14 08:53:48 51°9.04 2°37.225 2.3 345 -1.6 102850 73
2003-02-14 08:53:53 51°9.039 2°37.225 4.2 343 -1.6 102850 73
2003-02-14 08:53:58 51°9.039 2°37.225 4.7 350 -1.6 102850 73
2003-02-14 08:54:04 51°9.039 2°37.226 3.8 354 -1.6 102850 73
2003-02-14 08:54:08 51°9.038 2°37.226 3.3 346 -1.6 102850 73
2003-02-14 08:54:13 51°9.038 2°37.227 3.9 352 -1.6 102850 73
2003-02-14 08:54:18 51°9.038 2°37.227 3.6 352 -1.6 102850 73
2003-02-14 08:54:23 51°9.037 2°37.228 3.9 349 -1.6 102850 73
2003-02-14 08:54:28 51°9.037 2°37.229 3.3 352 -1.7 102850 73
2003-02-14 08:54:33 51°9.036 2°37.229 4 359 -1.7 102850 73
2003-02-14 08:54:39 51°9.036 2°37.23 3.9 353 -1.7 102850 73
2003-02-14 08:54:43 51°9.036 2°37.23 3.6 350 -1.7 102850 73
2003-02-14 08:54:48 51°9.036 2°37.231 3.1 360 -1.7 102850 73
2003-02-14 08:54:54 51°9.035 2°37.232 3.8 355 -1.7 102850 73
2003-02-14 08:54:58 51°9.035 2°37.233 4.2 355 -1.6 102850 73
2003-02-14 08:55:04 51°9.035 2°37.233 3.1 348 -1.6 102850 73
2003-02-14 08:55:08 51°9.035 2°37.234 3 350 -1.6 102850 73
2003-02-14 08:55:14 51°9.034 2°37.235 2.7 346 -1.6 102850 73
2003-02-14 08:55:19 51°9.034 2°37.236 3.9 357 -1.6 102850 74
2003-02-14 08:55:24 51°9.034 2°37.236 3.4 354 -1.6 102850 74
2003-02-14 08:55:28 51°9.033 2°37.237 3.8 355 -1.6 102860 74
2003-02-14 08:55:34 51°9.033 2°37.238 2.7 348 -1.6 102860 74
2003-02-14 08:55:39 51°9.033 2°37.238 3.2 347 -1.6 102860 74
2003-02-14 08:55:44 51°9.033 2°37.239 3.1 342 -1.6 102860 74
2003-02-14 08:55:48 51°9.033 2°37.24 3.1 348 -1.6 102850 74
2003-02-14 08:55:54 51°9.033 2°37.24 3.3 351 -1.6 102850 74
2003-02-14 08:55:58 51°9.032 2°37.241 4.4 352 -1.6 102850 74
2003-02-14 08:56:03 51°9.032 2°37.242 4.9 355 -1.6 102850 74
2003-02-14 08:56:08 51°9.032 2°37.242 4.7 358 -1.6 102850 73
2003-02-14 08:56:13 51°9.032 2°37.243 4.6 2 -1.6 102850 73
2003-02-14 08:56:19 51°9.032 2°37.244 4.8 357 -1.6 102860 73
2003-02-14 08:56:24 51°9.032 2°37.245 4.8 360 -1.6 102860 73
2003-02-14 08:56:28 51°9.031 2°37.246 4.5 354 -1.6 102850 74
2003-02-14 08:56:34 51°9.031 2°37.247 5.3 357 -1.6 102850 74
2003-02-14 08:56:39 51°9.031 2°37.247 4.6 355 -1.6 102860 74
2003-02-14 08:56:44 51°9.031 2°37.248 4.5 357 -1.6 102860 74
2003-02-14 08:56:48 51°9.031 2°37.248 4.4 356 -1.6 102860 74
2003-02-14 08:56:54 51°9.03 2°37.249 5 358 -1.6 102860 74
2003-02-14 08:56:58 51°9.03 2°37.249 4.5 5 -1.6 102850 74
2003-02-14 08:57:04 51°9.03 2°37.25 3.2 350 -1.6 102850 74
2003-02-14 08:57:08 51°9.03 2°37.251 4.5 358 -1.6 102860 74
2003-02-14 08:57:14 51°9.03 2°37.251 4.9 359 -1.6 102860 74
2003-02-14 08:57:18 51°9.03 2°37.252 5.1 357 -1.6 102850 74
2003-02-14 08:57:23 51°9.03 2°37.253 4.9 356 -1.6 102850 74
2003-02-14 08:57:28 51°9.03 2°37.253 5 2 -1.5 102850 74
2003-02-14 08:57:34 51°9.03 2°37.254 4.5 2 -1.5 102850 74
2003-02-14 08:57:38 51°9.03 2°37.254 4.6 358 -1.5 102860 74
2003-02-14 08:57:43 51°9.03 2°37.254 4.3 2 -1.5 102860 74
2003-02-14 08:57:48 51°9.03 2°37.256 4.6 354 -1.5 102860 74
2003-02-14 08:57:53 51°9.03 2°37.257 3.8 350 -1.5 102860 74
2003-02-14 08:57:59 51°9.03 2°37.258 4.1 347 -1.5 102860 74
2003-02-14 08:58:03 51°9.03 2°37.259 4.4 13 -1.5 102860 74
2003-02-14 08:58:08 51°9.03 2°37.26 3.5 1 -1.5 102860 74
2003-02-14 08:58:13 51°9.03 2°37.261 4.2 12 -1.5 102860 74
2003-02-14 08:58:19 51°9.03 2°37.262 3 5 -1.5 102860 74
2003-02-14 08:58:23 51°9.03 2°37.263 5.3 2 -1.5 102860 74
2003-02-14 08:58:28 51°9.03 2°37.263 4.7 3 -1.5 102850 75
2003-02-14 08:58:33 51°9.029 2°37.264 4.8   -1.5 102850 75
2003-02-14 08:58:39 51°9.029 2°37.266 4.6 359 -1.4 102860 75
2003-02-14 08:58:43 51°9.029 2°37.266 4.6 1 -1.4 102860 75
2003-02-14 08:58:48 51°9.029 2°37.267 4.7 1 -1.5 102860 75
2003-02-14 08:58:54 51°9.029 2°37.267 4.7 355 -1.5 102860 75
2003-02-14 08:58:58 51°9.029 2°37.268 4.6 3 -1.5 102860 74
2003-02-14 08:59:04 51°9.029 2°37.268 4.6 360 -1.5 102860 74
2003-02-14 08:59:08 51°9.029 2°37.269 4.4 360 -1.5 102850 74
2003-02-14 08:59:14 51°9.029 2°37.271 4.3 4 -1.5 102850 74
2003-02-14 08:59:19 51°9.029 2°37.271 4.9 355 -1.5 102860 74
2003-02-14 08:59:24 51°9.029 2°37.272 5 357 -1.5 102860 74
2003-02-14 08:59:28 51°9.029 2°37.273 4.5 360 -1.5 102860 74
2003-02-14 08:59:34 51°9.028 2°37.274 4.4 353 -1.5 102860 74
2003-02-14 08:59:39 51°9.028 2°37.275 2.4 343 -1.5 102860 74
2003-02-14 08:59:44 51°9.028 2°37.276 4.1 345 -1.5 102860 74
2003-02-14 08:59:48 51°9.029 2°37.277 4.1 348 -1.5 102860 74
2003-02-14 08:59:54 51°9.028 2°37.278 3.1 343 -1.5 102860 74
2003-02-14 08:59:58 51°9.028 2°37.279 1.7 335 -1.5 102850 74
2003-02-14 09:00:03 51°9.028 2°37.28 1.5 341 -1.5 102850 74
2003-02-14 09:00:08 51°9.028 2°37.281 1.5 331 -1.4 102850 75
2003-02-14 09:00:14 51°9.028 2°37.282 1.4 344 -1.4 102850 75
2003-02-14 09:00:19 51°9.028 2°37.283 1.7 332 -1.4 102860 75
2003-02-14 09:00:24 51°9.028 2°37.284 1.2 326 -1.4 102860 75
2003-02-14 09:00:28 51°9.028 2°37.286 1.5 341 -1.4 102860 75
2003-02-14 09:00:34 51°9.028 2°37.287 1 332 -1.4 102860 75
2003-02-14 09:00:38 51°9.028 2°37.288 0.7 333 -1.4 102860 75
2003-02-14 09:00:43 51°9.028 2°37.29 1.2 348 -1.4 102860 75
2003-02-14 09:00:48 51°9.028 2°37.291 0.6 345 -1.4 102860 75
2003-02-14 09:00:54 51°9.028 2°37.292 1.1 322 -1.4 102860 75
2003-02-14 09:00:59 51°9.028 2°37.294 1.4 329 -1.5 102860 74
2003-02-14 09:01:04 51°9.028 2°37.295 0.7 325 -1.5 102860 74
2003-02-14 09:01:08 51°9.028 2°37.296 0.5 326 -1.4 102860 75
2003-02-14 09:01:13 51°9.028 2°37.298 0.7 318 -1.4 102860 75
2003-02-14 09:01:18 51°9.028 2°37.299 0.6 313 -1.4 102860 75
2003-02-14 09:01:23 51°9.028 2°37.301 0.6 319 -1.4 102860 75
2003-02-14 09:01:28 51°9.028 2°37.302 0.5 317 -1.4 102850 75
2003-02-14 09:01:34 51°9.028 2°37.303 0.5 353 -1.4 102850 75
2003-02-14 09:01:38 51°9.028 2°37.305 1.8 341 -1.4 102850 75
2003-02-14 09:01:43 51°9.028 2°37.306 1.2 333 -1.4 102850 75
2003-02-14 09:01:48 51°9.028 2°37.308 1.5 337 -1.4 102860 75
2003-02-14 09:01:54 51°9.028 2°37.31 0.9 341 -1.4 102860 75
2003-02-14 09:01:58 51°9.028 2°37.311 1.2 336 -1.4 102850 75
2003-02-14 09:02:03 51°9.028 2°37.313 0.9 329 -1.4 102850 75
2003-02-14 09:02:08 51°9.028 2°37.314 0.9 346 -1.4 102850 75
2003-02-14 09:02:14 51°9.028 2°37.316 0.7 325 -1.4 102850 75
2003-02-14 09:02:18 51°9.028 2°37.317 0.8 322 -1.4 102850 75
2003-02-14 09:02:24 51°9.029 2°37.319 0.9 314 -1.4 102850 75
2003-02-14 09:02:28 51°9.029 2°37.32 1.6 316 -1.4 102860 75
2003-02-14 09:02:34 51°9.029 2°37.322 2.1 316 -1.4 102860 75
2003-02-14 09:02:38 51°9.029 2°37.324 2 323 -1.5 102860 75
2003-02-14 09:02:43 51°9.029 2°37.325 0.9 313 -1.5 102860 75
2003-02-14 09:02:48 51°9.029 2°37.327 2 321 -1.4 102850 75
2003-02-14 09:02:54 51°9.029 2°37.329 1.1 344 -1.4 102850 75
2003-02-14 09:02:59 51°9.029 2°37.331 1.9 326 -1.4 102850 75
2003-02-14 09:03:04 51°9.029 2°37.333 0.4 340 -1.4 102850 75
2003-02-14 09:03:08 51°9.029 2°37.334 0.7 333 -1.4 102850 75
2003-02-14 09:03:14 51°9.029 2°37.336 0.6 336 -1.4 102850 75
2003-02-14 09:03:19 51°9.029 2°37.338 2 305 -1.4 102850 75
2003-02-14 09:03:23 51°9.03 2°37.339 2 325 -1.4 102850 75
2003-02-14 09:03:28 51°9.03 2°37.34 1.3 317 -1.4 102850 76
2003-02-14 09:03:34 51°9.03 2°37.342 1.7 316 -1.4 102850 76
2003-02-14 09:03:38 51°9.03 2°37.344 2 321 -1.4 102850 75
2003-02-14 09:03:43 51°9.03 2°37.346 0.7 326 -1.4 102850 75
2003-02-14 09:03:48 51°9.03 2°37.347 1.2 331 -1.3 102850 76
2003-02-14 09:03:54 51°9.03 2°37.349 2.1 315 -1.3 102850 76
2003-02-14 09:03:59 51°9.031 2°37.351 1.3 324 -1.4 102850 76
2003-02-14 09:04:03 51°9.031 2°37.353 1.7 332 -1.4 102850 76
2003-02-14 09:04:08 51°9.031 2°37.355 1.9 317 -1.4 102850 75
2003-02-14 09:04:14 51°9.031 2°37.357 3 303 -1.4 102850 75
2003-02-14 09:04:19 51°9.031 2°37.359 2.2 306 -1.4 102850 75
2003-02-14 09:04:23 51°9.031 2°37.36 2.5 310 -1.4 102850 75
2003-02-14 09:04:28 51°9.031 2°37.362 2.2 311 -1.4 102850 75